Hourly Data Report for October 20, 2014

All times are specified in Local Standard Time (LST). Add 1 hour to adjust for Daylight Saving Time where and when it is observed.

ST LEONARD CS
NEW BRUNSWICK

47°09'28.050" N
67°49'55.014" W
245.00 m
810I001
71019
WIY

Download Data

Hourly Data (October 2014)
Hourly Data Report for October 20, 2014
Temp Definition
°C
Dew Point Temp Definition
°C
Rel Hum Definition
%
Wind Dir Definition
10's deg

Wind Spd Definition
km/h
Visibility Definition
km
Stn Press Definition
kPa
Hmdx Definition


Wind Chill Definition


Weather Definition


TIME
00:00 2.2 -1.1 79 30 7   97.67     LegendNANA
01:00 1.6 -1.2 82 30 10   97.70     LegendNANA
02:00 1.6 -1.4 81 31 8   97.70     LegendNANA
03:00 0.5 -1.3 88 30 4   97.68     LegendNANA
04:00 0.3 -1.9 85 30 7   97.68     LegendNANA
05:00 -0.6 -2.5 87 30 10   97.70   -4 LegendNANA
06:00 -0.9 -2.8 87 30 7   97.75   -3 LegendNANA
07:00 -0.9 -3.0 86 29 6   97.80   -3 LegendNANA
08:00 0.3 -3.0 79 29 7   97.87     LegendNANA
09:00 1.0 -2.4 78 29 5   97.91     LegendNANA
10:00 2.5 -2.6 69 29 13   97.90     LegendNANA
11:00 3.0 -2.8 65 29 10   97.92     LegendNANA
12:00 3.2 -2.6 66 28 11   97.91     LegendNANA
13:00 4.3 -3.0 59 29 15   97.86     LegendNANA
14:00 5.8 -2.9 53 28 11   97.88     LegendNANA
15:00 6.3 -3.8 48 26 13   97.88     LegendNANA
16:00 6.1 -3.9 49 28 8   97.93     LegendNANA
17:00 5.8 -4.0 49 27 7   97.98     LegendNANA
18:00 4.4 -3.4 57 27 5   98.06     LegendNANA
19:00 2.8 -3.2 64 26 3   98.14     LegendNANA
20:00 1.2 -3.2 73 28 4   98.20     LegendNANA
21:00 0.1 -2.9 80   0   98.32     LegendNANA
22:00 -0.1 -3.4 78 0 1   98.36   0 LegendNANA
23:00 -0.8 -3.8 80 30 2   98.40   -1 LegendNANA

Notes on Data Quality.

Legend

  • E = Estimated
  • M = Missing
  • NA = Not Available
  • ‡ = Partner data that is not subject to review by the National Climate Archives
Date modified: